Regional Weather Roundup
Issued by NWS

Home | Current Version | Previous Version | Graphics & Text | Print | Product List | Glossary On
Versions: 1 2 3 4 5 6 7 8 9 10 11 12 13 14 15 16 17 18 19 20 21 22 23 24 25 26 27
000
ASUS45 KCYS 171610
RWRWY

WYOMING REGIONAL WEATHER ROUNDUP
NATIONAL WEATHER SERVICE CHEYENNE WY
1000 AM MDT THU APR 17 2014

NOTE:  "FAIR" INDICATES FEW OR NO CLOUDS BELOW 12,000 FEET
WITH NO SIGNIFICANT WEATHER AND/OR OBSTRUCTIONS TO VISIBILITY.

WYZ001-171700-
YELLOWSTONE NATIONAL PARK

CITY           SKY/WX    TMP DP  RH WIND       PRES   REMARKS
LK YELLOWSTONE   N/A     27  11  51 E5        30.06S WCI  22
W YELLOWSTONE  NOT AVBL

$$
WYZ002>013-054>058-071-098>099-171700-
NORTHERN WYOMING

CITY           SKY/WX    TMP DP  RH WIND       PRES   REMARKS
JACKSON        SUNNY     34  18  51 CALM      30.07F
CODY           SUNNY     43  28  56 S5        29.97F
GREYBULL       SUNNY     43  31  62 CALM      30.00F
WORLAND        SUNNY     47  30  51 VRB3      29.99F
SHERIDAN       CLOUDY    37  33  85 S3        30.01F
BUFFALO        CLOUDY    40  32  73 SE7       30.00F
GILLETTE       MOSUNNY   42  34  73 S23       30.01S
HULETT         FAIR      43  32  65 S13       30.05
NEWCASTLE      CLOUDY    36  32  87 S12       30.11  WCI  27

$$
WYZ014>020-022>026-101>103-171700-
CENTRAL WYOMING

CITY           SKY/WX    TMP DP  RH WIND       PRES   REMARKS
BIG PINEY      SUNNY     37  16  42 MISG      30.10S
PINEDALE       CLOUDY    32  19  59 CALM      30.11S
DUBOIS         FAIR      41  14  33 NW15G26   30.02S
LANDER         PTSUNNY   37  29  72 CALM      30.03F
RIVERTON       PTSUNNY   40  29  64 CALM      30.05S
CASPER         SUNNY     45  29  53 SW18      30.05F
DOUGLAS        MOSUNNY   40  33  76 SE7       30.08S

$$
WYZ021-027>030-104>119-171700-
SOUTHERN WYOMING

CITY           SKY/WX    TMP DP  RH WIND       PRES   REMARKS
EVANSTON       SUNNY     45  16  31 SW9       30.10F
KEMMERER       SUNNY     41  18  38 CALM      30.10S
FORT BRIDGER   FAIR      48  15  27 W8        30.12S
ROCK SPRINGS   MOSUNNY   41  13  31 VRB5      30.11R
DIXON          FAIR      42  18  37 CALM      30.15F
RAWLINS        SUNNY     43  18  36 W12       30.10S
SARATOGA       FAIR      45  16  31 W9        30.11S
LARAMIE        SUNNY     39  16  39 VRB3      30.09R
CHEYENNE       SUNNY     44  29  55 VRB5      30.08S
TORRINGTON     CLOUDY    38  34  85 SE10      30.12R WCI  31
PINE BLUFFS    CLOUDY    39  34  81 SW9       30.12S WCI  33

$$



USA.gov is the U.S. government's official web portal to all federal, state and local government web resources and services.